TimeMST,TemperatureF,Dew PointF,Humidity,Sea Level PressureIn,VisibilityMPH,Wind Direction,Wind SpeedMPH,Gust SpeedMPH,PrecipitationIn,Events,Conditions,WindDirDegrees,DateUTC
12:53 AM,23.0,12.9,65,30.24,10.0,SW,11.5,-,N/A,,Clear,230,2013-02-28 07:53:00
1:53 AM,25.0,14.0,63,30.22,10.0,WSW,11.5,-,N/A,,Mostly Cloudy,250,2013-02-28 08:53:00
2:53 AM,21.9,14.0,72,30.23,10.0,West,9.2,-,N/A,,Mostly Cloudy,270,2013-02-28 09:53:00
3:53 AM,21.0,12.9,71,30.23,10.0,West,11.5,-,N/A,,Clear,270,2013-02-28 10:53:00
4:53 AM,23.0,15.8,74,30.16,10.0,West,12.7,-,N/A,,Overcast,280,2013-02-28 11:53:00
5:53 AM,25.0,19.9,81,30.29,10.0,Calm,Calm,-,0.00,,Overcast,0,2013-02-28 12:53:00
6:53 AM,24.8,17.6,74,30.15,10.0,WSW,9.2,-,N/A,,Overcast,250,2013-02-28 13:53:00
7:53 AM,28.0,18.0,66,30.29,10.0,West,11.5,-,N/A,,Scattered Clouds,260,2013-02-28 14:53:00
8:53 AM,28.9,17.1,61,30.27,10.0,WSW,10.4,-,N/A,,Clear,250,2013-02-28 15:53:00
9:53 AM,32.0,19.0,59,30.26,10.0,West,10.4,-,N/A,,Partly Cloudy,270,2013-02-28 16:53:00
10:53 AM,34.0,18.0,52,30.26,10.0,West,11.5,-,N/A,,Clear,270,2013-02-28 17:53:00
11:53 AM,35.1,19.9,54,30.25,10.0,WNW,10.4,-,N/A,,Clear,290,2013-02-28 18:53:00
12:53 PM,35.6,19.4,52,30.15,10.0,NW,16.1,20.7,N/A,,Overcast,310,2013-02-28 19:53:00
1:53 PM,36.0,19.0,50,30.23,10.0,NW,11.5,-,N/A,,Overcast,310,2013-02-28 20:53:00
2:53 PM,35.6,21.2,56,30.13,10.0,WNW,12.7,-,N/A,,Overcast,300,2013-02-28 21:53:00
3:53 PM,35.1,21.0,57,30.25,10.0,WNW,10.4,-,N/A,,Overcast,290,2013-02-28 22:53:00
4:53 PM,35.1,23.0,61,30.24,10.0,NW,11.5,-,N/A,,Overcast,310,2013-02-28 23:53:00
5:53 PM,32.0,24.1,73,30.26,10.0,WNW,8.1,-,N/A,,Overcast,290,2013-03-01 00:53:00
6:53 PM,30.0,24.1,79,30.28,10.0,NW,4.6,-,N/A,,Mostly Cloudy,310,2013-03-01 01:53:00
7:53 PM,28.0,23.0,81,30.29,10.0,NNE,4.6,-,N/A,,Overcast,20,2013-03-01 02:53:00
8:53 PM,28.0,23.0,81,30.30,10.0,Calm,Calm,-,N/A,,Overcast,0,2013-03-01 03:53:00
9:53 PM,25.0,21.9,88,30.31,10.0,SW,5.8,-,0.00,,Mostly Cloudy,230,2013-03-01 04:53:00
10:53 PM,27.0,23.0,85,30.30,10.0,SSW,3.5,-,N/A,,Overcast,210,2013-03-01 05:53:00
11:53 PM,28.0,23.0,81,30.29,10.0,SSW,4.6,-,N/A,,Overcast,210,2013-03-01 06:53:00